Weather in Bafoussam

Cameroon     5°28′41″N   10°25′33″E
temp.,
°C
wind,
m/s
gust,
m/s
humid.,
%
clouds,
%
prec.,
mm/h
press.,
hPa
HPBL,
m
6 may, thu
thu601:00+17w119432 0.3 101415
04:00+17wsw119473 0.0 101322
07:00+18wsw1191100 0.0 101457
10:00+23sw116843 0.1 1014590
13:00+27s335784 1.6 10111519
16:00+21wnw238995 7.3 1011164
19:00+18n1397100 14.8 1014135
22:00+18sw1194100 0.4 101521
7 may, fri
fri701:00+18nw1196100 1.1 101644
04:00+17sse1197100 0.1 101527
07:00+17se1196100 0.1 101752
10:00+18ese1296100 1.1 1019245
13:00+18nw0195100 3.9 1018214
16:00+20nw018799 0.3 1014215
19:00+18w229096 0.3 101436
22:00+18sse0087100 0.0 101611
8 may, sat
sat801:00+18s0189100 0.1 101612
04:00+17wsw1191100 0.0 101512
07:00+18wnw118797 0.0 101743
10:00+24ne126339 0.2 1017875
13:00+23e227746 3.9 1014868
16:00+22sse2284100 3.3 1013224
19:00+19sse119196 7.4 101514
22:00+18w119221 0.1 101619
9 may, sun
sun901:00+17w129691 0.1 101629
04:00+16w119674 0.0 101518
07:00+17w119321 0.0 101653
10:00+23e117418 0.9 1017516
13:00+24ene227033 3.6 10141013
16:00+24ne126913 2.6 1012981
19:00+19ssw119299 6.8 101416
22:00+18wsw119499 1.8 101615
10 may, mon
mon1001:00+18wnw1194100 2.0 101518
04:00+18w0192100 0.1 101412
07:00+18s119385 0.3 101616
10:00+23e127992 1.9 1016375
13:00+25ese246386 4.4 10141329
16:00+24se247315 2.5 1012820
19:00+19sse119116 4.6 101412
22:00+18wsw119261 0.3 101611